Regional Weather Roundup
Issued by NWS Bismarck, ND

Home | Current Version | Previous Version | Text Only | Print | Product List | Glossary On
Versions: 1 2 3 4 5 6 7 8 9 10 11 12 13 14 15 16 17 18 19 20 21 22 23 24 25 26 27 28 29 30 31 32 33 34 35 36 37 38 39 40 41 42 43 44 45 46 47 48 49 50
000
ASUS43 KBIS 291110
RWRBIS

NWR BROADCAST TEXT
NATIONAL WEATHER SERVICE BISMARCK ND
600 AM CDT MON MAY 29 2017

NOTE: "FAIR" INDICATES FEW OR NO CLOUDS BELOW 12,000 FEET WITH NO
SIGNIFICANT WEATHER AND/OR OBSTRUCTIONS TO VISIBILITY.


CITY           SKY/WX    TMP DP  RH WIND       PRES   REMARKS
WILLISTON      FAIR      45  38  76 NW12      30.11R
MINOT          CLOUDY    52  44  74 NW16      30.00R
MINOT AFB      CLOUDY    51  45  78 NW18      29.99R
BISMARCK       CLOUDY    52  43  71 NW13G18   30.01R
DICKINSON      FAIR      38  35  89 W8        30.08R
GARRISON         N/A     45  42  89 NW13      30.01R
HETTINGER ARPT FAIR      35  32  88 CALM      30.12R
JAMESTOWN      CLOUDY    50  47  89 NW16      29.89R
HAZEN          CLOUDY    50  43  76 NW17      30.05R
LINTON           N/A     45  45 100 NW9       30.01R
MANDAN         CLOUDY    48  43  81 NW18      30.01S
STANLEY        FAIR      45  45 100 NW10      30.08R
TIOGA          FAIR      41  41 100 W10       30.09R
WATFORD CITY   FAIR      43  39  87 W9        30.10R
$$

CITY           SKY/WX    TMP DP  RH WIND       PRES   REMARKS
GRAND FORKS    LGT RAIN  51  49  92 NW14      29.83R
GRAND FORKS AF CLOUDY    49  49 100 N12       29.84R
DEVILS LAKE    CLOUDY    50  46  86 NW15      29.89R
FARGO          CLOUDY    52  48  86 NW16G30   29.83R
CAVALIER       LGT RAIN  48  48 100 NW14      29.83R
GRAFTON        CLOUDY    50  50 100 NW15      29.85R
GWINNER        CLOUDY    52  48  87 MISG      29.87R
LANGDON        DRIZZLE   48  48 100 NW20G28   29.86R
ROLLA          CLOUDY    46  46 100 NW17      29.92R
$$

CITY           SKY/WX    TMP DP  RH WIND       PRES   REMARKS
ABERDEEN       FAIR      48  40  73 W15G22    29.92R
MOBRIDGE       FAIR      46  39  76 NW9       30.00R
BUFFALO          N/A     43  34  70 NW14      30.07S
RAPID CITY     FAIR      40  34  79 NW6       30.14R
GLASGOW        FAIR      38  31  76 NW9       30.20R
SIDNEY         FAIR      44  35  70 NW12      30.13S
WOLF POINT     FAIR      45  35  68 NW10      30.17S
GLENDIVE       FAIR      41  31  67 NW12      30.17R
MILES CITY     FAIR      40  26  57 NW10      30.19R
BAKER          FAIR      38  30  73 W6        30.16R
$$

CITY           SKY/WX    TMP DP  RH WIND       PRES   REMARKS
BILLINGS       FAIR      46  39  76 NW6       30.24R
GREAT FALLS    FAIR      45  42  89 SW8       30.25S
REGINA         MOCLDY    48  41  76 NW13      30.12R
ESTEVAN        PTCLDY    43  41  93 NW10      30.06S
$$





USA.gov is the U.S. government's official web portal to all federal, state and local government web resources and services.